DW1345 Weather Reports


time (UTC)temp
C
wind
direction
speed
KPH
gust
KPH
rain 1hr
cm
rain 24hr
cm
rain mn
cm
humidity
%
barometer
mb
20260509044519 10 76 9.7 0.0 0.00 0.00 0.00 48 1015.4
20260509043018 10 88 11.3 0.0 0.00 0.00 0.00 49 1015.5
20260509041516 10 118 11.3 0.0 0.00 0.00 0.00 49 1015.6
20260509040016 10 85 11.3 0.0 0.00 0.00 0.00 50 1015.7
20260509034514 10 149 12.9 0.0 0.00 0.00 0.00 49 1015.7
20260509033013 10 142 11.3 0.0 0.00 0.00 0.00 48 1015.7
20260509031512 10 127 11.3 0.0 0.00 0.00 0.00 48 1015.8
20260509030025 10 128 9.7 0.0 0.00 0.00 0.00 50 1016.0
20260509024511 10 128 12.9 0.0 0.00 0.00 0.00 50 1015.9
20260509023020 9 130 14.5 0.0 0.00 0.00 0.00 50 1015.9
20260509021507 9 74 9.7 0.0 0.00 0.00 0.00 50 1016.3
20260509020006 9 68 6.4 0.0 0.00 0.00 0.00 51 1016.4
20260509014506 10 48 4.8 0.0 0.00 0.00 0.00 49 1016.5
20260509013004 10 93 8.0 0.0 0.00 0.00 0.00 48 1016.4
20260509011505 10 126 11.3 0.0 0.00 0.00 0.00 48 1016.4
20260509010011 10 59 16.1 0.0 0.00 0.00 0.00 48 1016.4
20260509004501 10 153 16.1 0.0 0.00 0.00 0.00 49 1016.6
20260509003133 10 170 16.1 0.0 0.00 0.00 0.00 49 1016.7
20260509001606 10 132 14.5 0.0 0.00 0.00 0.00 49 1016.8
20260509000111 9 132 16.1 0.0 0.00 0.00 0.00 50 1016.9
20260508234554 9 71 14.5 0.0 0.00 0.00 0.00 50 1017.0
20260508233052 9 144 16.1 0.0 0.00 0.00 0.00 50 1017.1
20260508231552 8 92 14.5 0.0 0.00 0.00 0.00 51 1017.4
20260508230046 8 98 12.9 0.0 0.00 0.00 0.00 51 1017.5
20260508224545 8 128 11.3 0.0 0.00 0.00 0.00 54 1017.9
20260508223042 8 119 12.9 0.0 0.00 0.00 0.00 53 1018.1
20260508221537 9 95 14.5 0.0 0.00 0.00 0.00 48 1017.9
20260508220034 8 88 12.9 0.0 0.00 0.00 0.05 48 1018.1
20260508214534 8 129 11.3 0.0 0.00 0.00 0.05 49 1018.4
20260508213034 8 83 11.3 0.0 0.00 0.00 0.05 47 1018.5
20260508211532 8 93 11.3 0.0 0.00 0.00 0.05 48 1018.3
20260508210034 8 85 11.3 0.0 0.00 0.00 0.05 47 1018.3
20260508204532 8 127 11.3 0.0 0.00 0.00 0.05 48 1018.7
20260508203034 8 138 9.7 0.0 0.00 0.00 0.05 50 1019.0
20260508201531 8 86 9.7 0.0 0.00 0.00 0.05 49 1019.0
20260508200035 8 106 9.7 0.0 0.00 0.00 0.05 47 1019.1
20260508194530 8 107 8.0 0.0 0.00 0.00 0.05 47 1019.1
20260508193029 8 113 8.0 0.0 0.00 0.00 0.05 47 1019.2
20260508191529 8 102 8.0 0.0 0.00 0.00 0.05 47 1019.3
20260508190038 9 132 8.0 0.0 0.00 0.00 0.05 46 1019.3
20260508184528 9 96 8.0 0.0 0.00 0.00 0.05 46 1019.4
20260508183028 9 103 6.4 0.0 0.00 0.00 0.05 46 1019.5
20260508181527 9 86 6.4 0.0 0.00 0.00 0.05 44 1019.6
20260508180028 9 101 8.0 0.0 0.00 0.00 0.05 44 1019.6
20260508174540 10 96 6.4 0.0 0.00 0.00 0.05 44 1019.7
20260508173031 10 107 9.7 0.0 0.00 0.00 0.05 42 1019.6
20260508171526 10 134 6.4 0.0 0.00 0.00 0.05 41 1019.7
20260508170031 10 92 9.7 0.0 0.00 0.00 0.05 41 1019.8
20260508164525 10 134 9.7 0.0 0.00 0.00 0.05 40 1019.9
20260508163039 10 74 9.7 0.0 0.00 0.00 0.05 41 1019.9
20260508161524 11 82 6.4 0.0 0.00 0.00 0.05 39 1020.1
20260508160026 10 109 9.7 0.0 0.00 0.00 0.05 40 1019.9
20260508154523 10 145 8.0 0.0 0.00 0.00 0.05 41 1020.0
20260508153028 11 135 6.4 0.0 0.00 0.00 0.05 39 1020.1
20260508151528 11 145 6.4 0.0 0.00 0.00 0.05 40 1020.1
20260508150027 10 81 8.0 0.0 0.00 0.00 0.05 41 1020.3
20260508144520 10 67 9.7 0.0 0.00 0.00 0.05 44 1020.4
20260508143019 10 87 9.7 0.0 0.00 0.00 0.05 45 1020.5
20260508141518 10 97 8.0 0.0 0.00 0.00 0.05 46 1020.6
20260508140020 10 102 8.0 0.0 0.00 0.00 0.05 45 1020.8
20260508134523 10 82 9.7 0.0 0.00 0.00 0.05 47 1021.0
20260508133018 10 103 8.0 0.0 0.00 0.00 0.05 46 1021.1
20260508131517 10 109 6.4 0.0 0.00 0.00 0.05 46 1021.2
20260508130016 10 75 9.7 0.0 0.00 0.00 0.05 46 1021.4
20260508124516 10 77 9.7 0.0 0.00 0.00 0.05 46 1021.4
20260508123014 10 92 4.8 0.0 0.00 0.00 0.05 45 1021.4
20260508121516 10 95 6.4 0.0 0.00 0.00 0.05 45 1021.3
20260508120011 10 103 6.4 0.0 0.00 0.00 0.05 49 1021.2
20260508114509 9 89 6.4 0.0 0.00 0.00 0.05 51 1021.4
20260508113007 9 94 6.4 0.0 0.00 0.00 0.05 49 1021.4
20260508111506 9 132 9.7 0.0 0.00 0.00 0.05 51 1021.4
20260508110003 11 80 3.2 0.0 0.00 0.00 0.05 48 1021.4
20260508104605 11 173 3.2 0.0 0.00 0.00 0.05 50 1021.5
20260508103058 10 93 3.2 0.0 0.00 0.00 0.05 51 1021.6
20260508101556 8 302 3.2 0.0 0.00 0.00 0.05 54 1021.6
20260508100049 7 206 1.6 0.0 0.00 0.00 0.05 58 1021.7
20260508094554 7 248 1.6 0.0 0.00 0.00 0.05 63 1021.9
20260508093055 7 254 1.6 0.0 0.00 0.00 0.05 62 1022.0
20260508091543 7 258 1.6 0.0 0.00 0.00 0.05 64 1021.8
20260508084538 7 318 3.2 0.0 0.00 0.00 0.05 63 1021.9
20260508083036 7 209 3.2 0.0 0.00 0.00 0.05 69 1021.7
20260508081531 7 310 0.0 0.0 0.00 0.00 0.05 72 1021.6
20260508080036 6 317 1.6 0.0 0.00 0.00 0.05 75 1021.6
20260508074535 6 327 0.0 0.0 0.00 0.00 0.05 75 1021.5
20260508073023 6 40 3.2 0.0 0.00 0.00 0.05 77 1021.4
20260508071525 6 44 3.2 0.0 0.00 0.00 0.05 80 1021.5
20260508070014 5 51 3.2 0.0 0.00 0.00 0.05 85 1021.3
20260508064513 4 46 4.8 0.0 0.00 0.00 0.05 88 1021.2
20260508063007 3 53 4.8 0.0 0.00 0.00 0.05 89 1021.2
20260508061507 3 42 3.2 0.0 0.00 0.00 0.05 90 1021.3
20260508060005 3 52 4.8 0.0 0.00 0.00 0.05 90 1021.2
20260508054504 3 47 6.4 0.0 0.00 0.00 0.05 91 1021.1
20260508053001 3 62 3.2 0.0 0.00 0.00 0.05 91 1020.9
20260508051600 3 45 3.2 0.0 0.00 0.00 0.05 92 1020.8
20260508050059 2 42 3.2 0.0 0.00 0.00 0.05 92 1020.8